World > North America > United States > Minnesota

Hourly Lammers, MN Regional Weather

Feedback E-mail the Weather

Quick WX

Lammers, MN Weather Maps

°F °C°F °C
Lammers Weather Map
UTC Time: 7/4/2022, 06:14
Your Time:

Lammers, MN Regional Weather

Expires:202207040700;;650206
ASUS43 KMPX 040610
RWRMN 
WEATHER ROUNDUP FOR MINNESOTA
NATIONAL WEATHER SERVICE TWIN CITIES/CHANHASSEN MN
100 AM CDT MON JUL 04 2022


NOTE: "FAIR" INDICATES FEW OR NO CLOUDS BELOW 12,000 FEET WITH NO
SIGNIFICANT WEATHER AND/OR OBSTRUCTIONS TO VISIBILITY. N/A MEANS
CURRENT SKY AND/OR WEATHER CONDITIONS ARE NOT AVAILABLE.


MNZ001>005-007-008-013>017-022>024-027-028-040700-
   Northwest Minnesota   
  
CITY           SKY/WX    TMP DP  RH WIND       PRES   REMARKS
BEMIDJI        CLOUDY    66  65  97 E5        29.93F                  
HALLOCK        MOCLDY    72  66  83 E7        29.87S                  
ROSEAU           N/A     66  63  88 E6        29.92F                  
WARROAD        MOCLDY    66  63  88 E6        29.94F                  
THIEF RVR FALL CLOUDY    68  66  93 E9        29.91S                  
CROOKSTON      CLOUDY    72  66  83 SE9       29.88R                  
DETROIT LAKES  CLOUDY    68  66  94 SE9G15    29.90F                  
MOORHEAD       CLOUDY    73  66  78 SE9       29.87R                  
PARK RAPIDS    CLOUDY    67  64  90 SE7       29.92F                  
MAHNOMEN       FAIR      69  66  88 SE12      29.90S                  
$$

SKY/WX - Weather  TMP - Temperature  DP - Dew Point  RH - Humidity
WIND - Wind Direction/Speed PRES - Barometric Pressure VSB - Visibility
WCI - Wind Chill Index E13G22 Wind - East Wind 13 mph/Gusts of 22 mph

Trending Headlines

Lammers Radar Loop



Lammers Quick Facts


National Two Day Weather Forecast


E-mail the Lammers Weather Forecast

Voice your opinion or tell us about page issues...